Vienna, OH

2:08 AM EST on February 14, 2016 (GMT -0500)
Youngstown-Warren Regional

Weather History for KYNG - November, 2011

Change the Weather History Date:

Friday, November 4, 2011

  Actual Average Record
Temperature  
Mean Temperature 42 °F 46 °F  
Max Temperature 51 °F 54 °F 77 °F (2003)
Min Temperature 32 °F 37 °F 14 °F (1991)
Degree Days  
Heating Degree Days 23 20  
Month to date heating degree days 73 77  
Since 1 July heating degree days 625 698  
Cooling Degree Days 0 0  
Month to date cooling degree days 0 0  
Year to date cooling degree days 731 544  
Moisture  
Dew Point 31 °F    
Average Humidity 59    
Maximum Humidity 86    
Minimum Humidity 32    
Precipitation  
Precipitation 0.00 in 0.11 in - ()
Month to date precipitation 0.00 0.42  
Year to date precipitation 45.43 33.16  
Snow  
Snow 0.00 in 0.10 in - ()
Month to date snowfall 0.0 0.2  
Since 1 July snowfall T 1.0  
Since 1 September snowfall T 1.0  
Snow Depth 0.00 in    
Sea Level Pressure  
Sea Level Pressure 30.17 in    
Wind  
Wind Speed 10 mph (NNE)    
Max Wind Speed 20 mph    
Max Gust Speed 29 mph    
Visibility 10 miles    
Events      
T = Trace of Precipitation, MM = Missing Value Source: NWS Daily Summary

Daily Weather History Graph

Daily Weather History Graph

Search for Another Location

Airport or City:

Trip Planner

Search our weather history database for the weather conditions in past years. The results will help you decide how hot, cold, wet, or windy it might be!

Date:

Astronomy

Nov. 04, 2011 Rise Set
Actual Time 7:57 AM EDT 6:14 PM EDT
Civil Twilight 7:28 AM EDT 6:43 PM EDT
Nautical Twilight 6:55 AM EDT 7:16 PM EDT
Astronomical Twilight 6:23 AM EDT 7:48 PM EDT
Moon 3:08 PM EDT (11/4) 2:04 AM EDT (11/4)
Length of Visible Light 11h 15m
Length of Day
10h 17m
Waxing Gibbous, 69% of the Moon is Illuminated
Nov 4
Waxing Gibbous
Nov 10
Full
Nov 18
Last Quarter
Nov 25
New
Dec 2
First Quarter

Hourly Weather History & Observations

Time (EDT) Temp. Windchill Dew Point Humidity Pressure Visibility Wind Dir Wind Speed Gust Speed Precip Events Conditions
12:51 AM 46.0 °F 39.0 °F 42.1 °F 86% 30.01 in 10.0 mi NNE 17.3 mph 20.7 mph N/A   Overcast
1:51 AM 46.4 °F 40.7 °F 42.8 °F 87% 30.00 in 10.0 mi NNE 12.7 mph - N/A   Overcast
2:51 AM 46.4 °F 41.1 °F 42.8 °F 87% 30.01 in 10.0 mi North 11.5 mph - N/A   Overcast
3:05 AM 46.4 °F 40.7 °F 41.0 °F 81% 30.02 in 10.0 mi NNE 12.7 mph - N/A   Overcast
3:51 AM 46.0 °F 40.6 °F 39.9 °F 79% 30.05 in 10.0 mi NNE 11.5 mph - N/A   Overcast
4:51 AM 45.0 °F 38.5 °F 37.9 °F 76% 30.06 in 10.0 mi NE 13.8 mph 19.6 mph N/A   Overcast
5:34 AM 42.8 °F 37.5 °F 37.4 °F 81% 30.06 in 10.0 mi NNE 9.2 mph - N/A   Overcast
5:51 AM 43.0 °F 36.8 °F 36.0 °F 76% 30.09 in 10.0 mi North 11.5 mph - N/A   Overcast
6:38 AM 41.0 °F 34.3 °F 35.6 °F 81% 30.10 in 10.0 mi North 11.5 mph - N/A   Scattered Clouds
6:51 AM 39.9 °F 33.9 °F 34.0 °F 79% 30.13 in 10.0 mi NNE 9.2 mph - N/A   Scattered Clouds
7:51 AM 37.9 °F 32.7 °F 32.0 °F 79% 30.15 in 10.0 mi NNE 6.9 mph - N/A   Scattered Clouds
8:51 AM 39.9 °F 35.1 °F 32.0 °F 73% 30.18 in 10.0 mi NE 6.9 mph - N/A   Scattered Clouds
9:51 AM 42.1 °F 35.2 °F 32.0 °F 67% 30.20 in 10.0 mi NE 12.7 mph 19.6 mph N/A   Scattered Clouds
10:51 AM 45.0 °F 39.3 °F 28.9 °F 53% 30.20 in 10.0 mi NE 11.5 mph 18.4 mph N/A   Partly Cloudy
11:51 AM 46.9 °F - 27.0 °F 46% 30.20 in 10.0 mi NNE 11.5 mph - N/A   Partly Cloudy
12:51 PM 48.0 °F - 23.0 °F 37% 30.22 in 10.0 mi NE 10.4 mph - N/A   Partly Cloudy
1:51 PM 48.9 °F - 23.0 °F 36% 30.20 in 10.0 mi NE 12.7 mph 24.2 mph N/A   Clear
2:51 PM 50.0 °F - 23.0 °F 35% 30.20 in 10.0 mi North 15.0 mph - N/A   Clear
3:51 PM 50.0 °F - 21.0 °F 32% 30.21 in 10.0 mi NNE 12.7 mph - N/A   Clear
4:51 PM 46.9 °F - 21.9 °F 37% 30.23 in 10.0 mi North 15.0 mph - N/A   Partly Cloudy
5:51 PM 44.1 °F 37.4 °F 26.1 °F 49% 30.25 in 10.0 mi North 13.8 mph - N/A   Partly Cloudy
6:51 PM 39.9 °F 33.9 °F 27.0 °F 60% 30.29 in 10.0 mi North 9.2 mph - N/A   Partly Cloudy
7:51 PM 37.0 °F 32.4 °F 26.1 °F 65% 30.30 in 10.0 mi NNE 5.8 mph - N/A   Clear
8:51 PM 37.9 °F 34.4 °F 26.1 °F 62% 30.31 in 10.0 mi NNE 4.6 mph - N/A   Clear
9:51 PM 37.0 °F - 26.1 °F 65% 30.32 in 10.0 mi Calm Calm - N/A   Clear
10:51 PM 33.1 °F 28.7 °F 25.0 °F 72% 30.33 in 10.0 mi NE 4.6 mph - N/A   Clear
11:51 PM 36.0 °F 29.6 °F 26.1 °F 67% 30.33 in 10.0 mi ENE 8.1 mph - N/A   Scattered Clouds